FW6665 Weather Reports


time (UTC)temp
C
wind
direction
speed
KPH
gust
KPH
rain 1hr
cm
rain 24hr
cm
rain mn
cm
humidity
%
barometer
mb
20260831085226 17 259 8.0 19.3 0.00 0.10 0.00 76 1007.0
20260831084230 17 237 6.4 19.3 0.00 0.10 0.00 76 1006.9
20260831083704 17 243 3.2 19.3 0.00 0.10 0.00 76 1006.7
20260831083204 17 235 4.8 14.5 0.00 0.10 0.00 77 1006.7
20260831082703 17 243 4.8 14.5 0.00 0.10 0.00 77 1006.6
20260831082204 16 247 4.8 16.1 0.00 0.10 0.00 77 1006.5
20260831081703 16 252 6.4 16.1 0.00 0.10 0.00 78 1006.5
20260831080704 16 247 6.4 16.1 0.00 0.10 0.00 78 1006.4
20260831080205 16 199 4.8 22.5 0.00 0.10 0.00 78 1006.4
20260831075704 16 230 4.8 22.5 0.00 0.10 0.00 78 1006.3
20260831075205 16 264 6.4 22.5 0.00 0.10 0.00 78 1006.2
20260831074704 16 200 8.0 22.5 0.00 0.10 0.00 78 1006.2
20260831073704 15 207 9.7 11.3 0.00 0.10 0.00 78 1005.9
20260831073205 15 226 3.2 19.3 0.00 0.10 0.00 78 1005.8
20260831072704 15 238 6.4 19.3 0.00 0.10 0.00 78 1005.8
20260831072204 15 186 3.2 11.3 0.00 0.10 0.00 78 1005.7
20260831071705 15 238 4.8 11.3 0.00 0.10 0.00 78 1005.7
20260831071204 15 161 6.4 16.1 0.00 0.10 0.00 77 1005.6
20260831070203 15 230 6.4 17.7 0.00 0.10 0.00 77 1005.5
20260831065704 15 204 3.2 17.7 0.00 0.10 0.00 77 1005.5
20260831065206 15 220 4.8 14.5 0.00 0.10 0.00 77 1005.4
20260831064705 15 248 4.8 14.5 0.00 0.10 0.00 77 1005.4
20260831063704 15 245 4.8 11.3 0.00 0.10 0.00 77 1005.3
20260831063204 15 235 3.2 16.1 0.00 0.10 0.00 77 1005.1
20260831062706 15 234 4.8 16.1 0.00 0.10 0.00 77 1005.1
20260831062205 14 209 3.2 16.1 0.00 0.10 0.00 77 1005.1
20260831061704 14 216 3.2 16.1 0.00 0.10 0.00 77 1004.9
20260831060704 14 189 3.2 9.7 0.00 0.10 0.00 76 1004.7
20260831055704 14 259 3.2 16.1 0.00 0.10 0.00 76 1004.6
20260831055204 14 206 3.2 9.7 0.00 0.10 0.00 76 1004.6
20260831054703 14 257 3.2 9.7 0.00 0.10 0.00 76 1004.4
20260831054204 14 176 1.6 16.1 0.00 0.10 0.00 77 1004.4
20260831053704 14 209 1.6 16.1 0.00 0.10 0.00 77 1004.2
20260831053204 14 244 3.2 14.5 0.00 0.10 0.00 77 1004.2
20260831052704 14 264 3.2 14.5 0.00 0.10 0.00 77 1004.1
20260831052204 14 243 3.2 14.5 0.00 0.10 0.00 77 1004.2
20260831051704 14 247 4.8 14.5 0.00 0.10 0.00 76 1004.2
20260831051204 14 233 3.2 14.5 0.00 0.10 0.00 76 1004.1
20260831050704 14 186 3.2 9.7 0.00 0.10 0.00 76 1004.0
20260831050204 15 265 1.6 9.7 0.00 0.10 0.00 76 1003.8
20260831045704 15 188 3.2 9.7 0.00 0.10 0.00 77 1003.8
20260831044704 15 226 1.6 8.0 0.00 0.10 0.00 77 1003.6
20260831044203 15 178 3.2 8.0 0.00 0.10 0.00 77 1003.6
20260831043706 15 185 1.6 11.3 0.00 0.10 0.00 77 1003.5
20260831042704 15 244 3.2 11.3 0.00 0.10 0.00 77 1003.5
20260831042208 15 251 3.2 11.3 0.00 0.10 0.00 77 1003.5
20260831041704 15 238 1.6 8.0 0.00 0.10 0.00 77 1003.5
20260831041204 15 235 1.6 8.0 0.00 0.10 0.00 77 1003.4
20260831040704 15 195 1.6 9.7 0.00 0.10 0.00 77 1003.4
20260831040206 15 199 3.2 9.7 0.00 0.10 0.00 77 1003.4
20260831035204 15 257 3.2 14.5 0.00 0.10 0.00 77 1003.3
20260831034704 15 247 3.2 14.5 0.00 0.10 0.00 77 1003.4
20260831034203 15 241 3.2 14.5 0.00 0.10 0.00 77 1003.3
20260831033204 15 193 3.2 17.7 0.00 0.10 0.00 77 1003.3
20260831032204 16 158 1.6 17.7 0.00 0.10 0.00 77 1003.1
20260831031203 16 233 4.8 11.3 0.00 0.10 0.00 76 1003.1
20260831030704 16 221 3.2 11.3 0.00 0.10 0.00 76 1003.1
20260831030204 16 245 3.2 11.3 0.00 0.10 0.00 75 1003.1
20260831025705 16 213 3.2 11.3 0.00 0.10 0.00 75 1003.0
20260831025204 16 244 0.0 9.7 0.00 0.10 0.00 75 1002.9
20260831024704 16 180 1.6 9.7 0.00 0.10 0.00 75 1002.9
20260831023704 16 176 3.2 9.7 0.00 0.10 0.00 74 1002.8
20260831023203 16 172 3.2 11.3 0.00 0.10 0.00 74 1002.7
20260831022704 16 144 1.6 11.3 0.00 0.10 0.00 74 1002.6
20260831022204 16 248 3.2 17.7 0.00 0.10 0.00 73 1002.5
20260831021705 16 200 0.0 17.7 0.00 0.10 0.00 73 1002.5
20260831021204 16 168 1.6 8.0 0.00 0.10 0.00 73 1002.4
20260831015704 16 188 1.6 8.0 0.00 0.10 0.00 73 1002.5
20260831015209 16 179 1.6 9.7 0.00 0.10 0.00 73 1002.5
20260831014706 16 172 1.6 9.7 0.00 0.10 0.00 73 1002.4
20260831014207 16 182 0.0 9.7 0.00 0.10 0.00 73 1002.6
20260831013704 16 180 1.6 9.7 0.00 0.10 0.00 73 1002.6
20260831013204 16 104 1.6 9.7 0.00 0.10 0.00 73 1002.6
20260831012204 16 180 1.6 9.7 0.00 0.10 0.00 74 1002.7
20260831011704 16 182 1.6 9.7 0.00 0.10 0.00 74 1002.8
20260831011205 16 179 3.2 9.7 0.00 0.10 0.00 74 1002.8
20260831010710 16 155 3.2 8.0 0.00 0.10 0.00 74 1002.9
20260831010204 16 214 3.2 11.3 0.00 0.10 0.00 75 1002.9
20260831005704 16 216 3.2 11.3 0.00 0.10 0.00 75 1003.1
20260831005204 16 162 1.6 11.3 0.00 0.10 0.00 74 1003.0
20260831004704 16 71 3.2 11.3 0.00 0.10 0.00 74 1003.0
20260831004209 16 179 1.6 6.4 0.00 0.10 0.00 74 1002.9
20260831003704 16 168 1.6 6.4 0.00 0.10 0.00 74 1003.0
20260831003207 16 176 0.0 9.7 0.00 0.10 0.00 74 1002.9
20260831002705 16 186 1.6 9.7 0.00 0.10 0.00 74 1003.0
20260831002207 16 175 1.6 8.0 0.00 0.10 0.00 74 1003.0
20260831001209 16 180 0.0 6.4 0.00 0.10 0.00 74 1003.3
20260831000704 16 171 1.6 6.4 0.00 0.10 0.00 74 1003.5
20260831000205 16 165 0.0 11.3 0.00 0.10 0.00 74 1003.5
20260830235704 16 165 0.0 11.3 0.00 0.10 0.00 74 1003.5
20260830234705 16 165 0.0 11.3 0.00 0.10 0.00 74 1003.5
20260830234204 16 165 1.6 4.8 0.00 0.10 0.00 74 1003.7
20260830233704 16 157 0.0 4.8 0.00 0.10 0.00 74 1003.7
20260830232704 16 168 0.0 4.8 0.00 0.10 0.00 75 1003.7
20260830232203 16 165 1.6 4.8 0.00 0.10 0.00 75 1003.7
20260830231204 16 171 1.6 6.4 0.00 0.10 0.00 75 1003.8
20260830230228 16 178 1.6 9.7 0.00 0.10 0.10 75 1004.0
20260830225708 16 180 0.0 9.7 0.00 0.10 0.10 75 1004.1
20260830225204 16 179 1.6 11.3 0.00 0.10 0.10 75 1004.2
20260830224704 16 180 1.6 11.3 0.00 0.10 0.10 75 1004.1
20260830224204 16 188 3.2 11.3 0.00 0.10 0.10 75 1004.2
20260830223704 16 190 1.6 11.3 0.00 0.10 0.10 75 1004.3
20260830223204 16 209 1.6 14.5 0.00 0.10 0.10 76 1004.3
20260830222205 16 179 1.6 14.5 0.00 0.10 0.10 76 1004.3
20260830221705 16 159 1.6 14.5 0.00 0.10 0.10 75 1004.3
20260830221205 16 162 3.2 8.0 0.00 0.10 0.10 75 1004.4
20260830220704 16 186 1.6 8.0 0.00 0.10 0.10 75 1004.3
20260830220214 16 188 1.6 8.0 0.05 0.10 0.10 75 1004.3
20260830215704 16 179 1.6 8.0 0.10 0.10 0.10 75 1004.3
20260830215217 16 180 0.0 8.0 0.10 0.10 0.10 75 1004.3
20260830214204 17 133 3.2 9.7 0.10 0.10 0.10 75 1004.4
20260830213704 17 173 1.6 9.7 0.10 0.10 0.10 75 1004.4
20260830213225 17 154 1.6 8.0 0.10 0.10 0.10 75 1004.4
20260830212704 17 134 1.6 8.0 0.10 0.10 0.10 76 1004.3
20260830211709 17 131 1.6 17.7 0.10 0.10 0.10 76 1004.3
20260830210709 18 197 4.8 8.0 0.08 0.08 0.08 77 1004.5
20260830210205 18 116 1.6 8.0 0.05 0.00 0.00 77 1004.4
20260830205704 18 142 1.6 8.0 0.00 0.00 0.00 77 1004.2
20260830205232 18 100 1.6 6.4 0.00 0.00 0.00 77 1004.2
20260830204705 18 96 3.2 6.4 0.00 0.00 0.00 77 1004.3
20260830204204 18 109 3.2 9.7 0.00 0.00 0.00 76 1004.5
20260830203704 18 109 1.6 9.7 0.00 0.00 0.00 76 1004.6
20260830203205 18 104 3.2 9.7 0.00 0.00 0.00 76 1004.6
20260830202704 18 128 1.6 9.7 0.00 0.00 0.00 75 1004.5
20260830202207 18 125 1.6 9.7 0.00 0.00 0.00 74 1004.6
20260830201704 18 131 1.6 9.7 0.00 0.00 0.00 74 1004.5
20260830201206 18 99 1.6 8.0 0.00 0.00 0.00 74 1004.5
20260830200704 18 164 0.0 8.0 0.00 0.00 0.00 75 1004.5
20260830200204 18 133 1.6 6.4 0.00 0.00 0.00 75 1004.7
20260830195704 18 165 1.6 6.4 0.00 0.00 0.00 75 1004.8
20260830195205 18 196 1.6 8.0 0.00 0.00 0.00 75 1004.7
20260830194704 18 190 0.0 8.0 0.00 0.00 0.00 75 1004.7
20260830194204 18 192 3.2 6.4 0.00 0.00 0.00 75 1004.8
20260830193204 18 148 0.0 6.4 0.00 0.00 0.00 75 1004.9
20260830192704 18 182 0.0 6.4 0.00 0.00 0.00 74 1004.9
20260830192205 18 176 1.6 6.4 0.00 0.00 0.00 74 1005.0
20260830191704 19 154 1.6 6.4 0.00 0.00 0.00 73 1004.9
20260830191204 19 179 1.6 14.5 0.00 0.00 0.00 73 1004.8
20260830190204 19 175 3.2 16.1 0.00 0.00 0.00 73 1005.0
20260830184704 19 149 3.2 16.1 0.00 0.00 0.00 72 1004.8
20260830184203 19 193 3.2 11.3 0.00 0.00 0.00 71 1004.9
20260830183205 20 186 3.2 14.5 0.00 0.00 0.00 70 1005.1
20260830182704 20 87 4.8 14.5 0.00 0.00 0.00 70 1005.0
20260830182205 20 161 3.2 14.5 0.00 0.00 0.00 69 1005.0
20260830181704 20 180 3.2 14.5 0.00 0.00 0.00 69 1004.9
20260830181204 20 185 4.8 14.5 0.00 0.00 0.00 68 1004.9
20260830180704 20 180 3.2 14.5 0.00 0.00 0.00 68 1005.0
20260830175704 20 237 1.6 14.5 0.00 0.00 0.00 68 1005.2
20260830175203 20 148 3.2 14.5 0.00 0.00 0.00 68 1005.3
20260830174704 20 165 3.2 14.5 0.00 0.00 0.00 68 1005.3
20260830174205 20 245 3.2 9.7 0.00 0.00 0.00 67 1005.3
20260830173705 20 154 3.2 9.7 0.00 0.00 0.00 67 1005.2
20260830173204 20 224 3.2 8.0 0.00 0.00 0.00 67 1005.1
20260830172705 21 140 3.2 19.3 0.00 0.00 0.00 66 1005.2
20260830172205 21 165 3.2 19.3 0.00 0.00 0.00 66 1005.2
20260830171714 21 120 1.6 19.3 0.00 0.00 0.00 66 1005.1
20260830170705 21 172 4.8 14.5 0.00 0.03 0.00 64 1005.2
20260830170205 21 231 4.8 14.5 0.00 0.03 0.00 63 1005.4
20260830165704 21 228 3.2 14.5 0.00 0.03 0.00 63 1005.3
20260830164204 21 193 3.2 19.3 0.00 0.03 0.00 62 1005.3
20260830163704 21 188 4.8 19.3 0.00 0.03 0.00 61 1005.4
20260830163204 21 202 3.2 17.7 0.00 0.03 0.00 61 1005.4
20260830162704 22 152 4.8 17.7 0.00 0.03 0.00 60 1005.6
20260830162204 22 207 4.8 17.7 0.00 0.03 0.00 60 1005.5
20260830161704 22 175 4.8 17.7 0.00 0.03 0.00 59 1005.6
20260830161204 22 204 6.4 16.1 0.00 0.03 0.00 59 1005.6
20260830160705 22 241 6.4 16.1 0.00 0.03 0.00 59 1005.5
20260830160204 22 154 4.8 19.3 0.00 0.03 0.00 59 1005.6
20260830155709 22 248 4.8 19.3 0.00 0.03 0.00 60 1005.7
20260830153704 22 264 4.8 22.5 0.00 0.05 0.00 61 1005.9
20260830153204 22 200 4.8 9.7 0.00 0.05 0.00 62 1005.8
20260830152705 22 158 1.6 9.7 0.00 0.05 0.00 63 1005.8
20260830152205 22 155 3.2 11.3 0.00 0.05 0.00 64 1005.9
20260830151704 21 212 3.2 11.3 0.00 0.05 0.00 63 1006.0
20260830151204 21 152 3.2 16.1 0.00 0.05 0.00 63 1006.0
20260830150705 21 209 3.2 16.1 0.00 0.05 0.00 63 1005.9
20260830145704 22 172 3.2 16.1 0.00 0.05 0.00 64 1006.0
20260830145204 22 87 3.2 16.1 0.00 0.05 0.00 63 1006.1
20260830144704 22 92 4.8 16.1 0.00 0.08 0.00 63 1006.0
20260830144204 22 199 6.4 17.7 0.00 0.08 0.00 62 1006.1
20260830143204 22 142 3.2 16.1 0.00 0.08 0.00 64 1006.1
20260830142704 22 169 3.2 16.1 0.00 0.10 0.00 63 1006.1
20260830142205 22 106 4.8 16.1 0.00 0.10 0.00 62 1006.1
20260830141704 22 338 4.8 16.1 0.00 0.10 0.00 63 1006.1
20260830141234 22 61 4.8 11.3 0.00 0.13 0.00 64 1006.2
20260830140706 22 168 3.2 11.3 0.00 0.13 0.00 63 1006.2
20260830135707 22 183 3.2 16.1 0.00 0.15 0.00 64 1006.3
20260830135204 22 226 6.4 11.3 0.00 0.15 0.00 65 1006.4
20260830134704 22 120 3.2 11.3 0.00 0.15 0.00 66 1006.5
20260830134204 22 179 3.2 22.5 0.00 0.18 0.00 67 1006.5
20260830133712 21 118 3.2 22.5 0.00 0.18 0.00 68 1006.6
20260830132704 21 179 3.2 9.7 0.00 0.18 0.00 71 1006.8
20260830132205 20 96 3.2 11.3 0.00 0.18 0.00 72 1006.8
20260830131705 20 186 4.8 11.3 0.00 0.18 0.00 73 1006.9
20260830131207 20 176 3.2 20.9 0.00 0.18 0.00 74 1007.0
20260830130707 20 113 3.2 20.9 0.00 0.18 0.00 73 1007.0
20260830130204 21 154 4.8 14.5 0.00 0.18 0.00 71 1007.1
20260830125707 21 164 3.2 14.5 0.00 0.18 0.00 68 1007.1
20260830125203 22 203 3.2 14.5 0.00 0.18 0.00 64 1007.0
20260830124704 22 127 3.2 14.5 0.00 0.18 0.00 63 1006.7
20260830123704 22 85 1.6 11.3 0.00 0.18 0.00 61 1006.9
20260830123204 22 183 3.2 8.0 0.00 0.18 0.00 60 1006.9
20260830122707 22 210 4.8 8.0 0.00 0.18 0.00 60 1006.9
20260830122207 22 166 3.2 16.1 0.00 0.18 0.00 60 1006.9
20260830121707 22 90 1.6 16.1 0.00 0.20 0.00 61 1006.9
20260830121220 22 162 1.6 9.7 0.00 0.20 0.00 61 1006.9
20260830120707 22 180 4.8 9.7 0.00 0.20 0.00 60 1007.0
20260830120205 22 158 3.2 9.7 0.00 0.20 0.00 61 1006.9
20260830115704 22 238 3.2 9.7 0.00 0.23 0.00 60 1006.9
20260830115204 22 180 3.2 9.7 0.00 0.23 0.00 61 1007.1
20260830114704 22 192 3.2 9.7 0.00 0.23 0.00 61 1007.0
20260830114207 22 223 3.2 9.7 0.00 0.23 0.00 62 1007.0
20260830113704 22 173 3.2 9.7 0.00 0.23 0.00 63 1007.1
20260830113207 22 169 3.2 11.3 0.00 0.23 0.00 62 1007.1
20260830112704 22 189 4.8 14.5 0.00 0.25 0.00 62 1007.1
20260830112205 22 155 4.8 14.5 0.00 0.25 0.00 63 1007.3
20260830110704 22 168 3.2 6.4 0.00 0.28 0.00 64 1007.5
20260830110236 21 195 1.6 16.1 0.00 0.30 0.00 65 1007.5
20260830105204 21 241 3.2 16.1 0.00 0.33 0.00 67 1007.6
20260830104704 21 245 6.4 16.1 0.00 0.33 0.00 66 1007.7
20260830104207 21 179 4.8 9.7 0.00 0.33 0.00 66 1007.7
20260830103704 21 240 3.2 9.7 0.00 0.33 0.00 66 1007.6
20260830103204 21 173 3.2 6.4 0.00 0.33 0.00 66 1007.7
20260830102206 21 180 3.2 6.4 0.00 0.33 0.00 67 1007.8
20260830101704 21 189 1.6 6.4 0.00 0.33 0.00 66 1007.8
20260830101205 21 145 1.6 9.7 0.00 0.33 0.00 66 1007.9
20260830100203 21 207 0.0 8.0 0.00 0.33 0.00 67 1007.8
20260830095704 21 228 4.8 8.0 0.00 0.33 0.00 66 1007.8
20260830095205 21 244 3.2 9.7 0.00 0.33 0.00 66 1007.8
20260830094705 21 216 3.2 9.7 0.00 0.33 0.00 67 1007.9
20260830094205 21 237 3.2 11.3 0.00 0.33 0.00 67 1007.9
20260830093705 20 235 3.2 11.3 0.00 0.33 0.00 68 1007.9
20260830092704 20 226 6.4 16.1 0.00 0.33 0.00 69 1007.9
20260830092204 20 241 6.4 11.3 0.00 0.33 0.00 69 1007.9
20260830091704 20 234 3.2 11.3 0.00 0.33 0.00 70 1007.9
20260830091205 20 221 4.8 8.0 0.00 0.33 0.00 71 1007.9
20260830090706 20 221 4.8 8.0 0.00 0.33 0.00 72 1007.9
20260830090205 20 240 3.2 14.5 0.00 0.36 0.00 74 1008.0
20260830085704 19 224 0.0 14.5 0.00 0.36 0.00 76 1007.9